STARLINK-5470, 54776

Orbit data source: Space-Track

STARLINK-5470, 54776 is a payload satellite owned by SpaceX/Seattle (US) in LEO that was launched on Sat, 17 Dec 2022 UTC via an FALCON 9 launch vehicle from the Air Force Eastern Test Range (AFETR). Payload-class satellites include a variety of spacecraft equipped with specific instruments for various scientific and technological missions. These include communications satellites like Starlink; space stations such as the ISS; scientific satellites like the Hubble; Earth observation satellites from companies like Planet Labs, Umbra, and HawkEye 360; GPS; miniature CubeSats for education and research; and military/defense satellites.

Loading next visibility...
Identifier
54776, 2022-175U
Orbit
LEO
Country
Flag of USUS
Related business
Manufacturer
SpaceX/Seattle
Mission
Operational Commercial Communications
Bus & Motor
STARLINK, Unknown motor
Mass
305 kg wet, ~290 kg dry
Launch date (UTC)
2022-12-17 (4 years ago)
Launch vehicle
FALCON 9
Launch site
Air Force Eastern Test Range (AFETR)
Object type
Payload
Rocket body
Debris
Shape & HBR
Box + 1 Pan, 10.1 m
Radar Cross Section
13.562 m², Large (>1 m²)

Expand to show TLE details & history
Last TLE update: 3 days ago

TLE from 3 days ago
0 STARLINK-5470
1 54776U 22175U   26170.69260859 -.00000549  00000-0 -16440-4 0  9996
2 54776  53.1600 305.7065 0001044 113.5939 246.5162 15.08837807195325
Epoch: 2026-06-19T16:37Z
TLE epoch observation values (Epoch: 2026-06-19T16:37:21.382Z)
Latitude
-0.00002°
Longitude
148.44946°
Altitude
540.929 km
Speed
7.593 km/s
True Right ascension
20h 22m 49s
True Declination
0° 00' 00"
Sunlit
Object was in full shadow at epoch
Visualization orbit readout
Latitude
Unknown
Longitude
Unknown
Altitude
Unknown
Speed
Unknown
Apparent Right ascension
Unknown
Apparent Declination
Unknown
Sunlit
N/A
Visualization observer readout
Local Sidereal Time
00:33:07
Azimuth
Unknown
Elevation
Unknown
Doppler factor
Unknown
Orbital elements
Apogee altitude
540.726 km
Perigee altitude
539.282 km
Semi-major axis
6,918.141 km
Eccentricity
0.0001
Inclination
53.16°
RAAN
305.7065°
Arg. of periapsis
113.5939°
True anomaly
246.50523°
Mean anomaly
246.5162°
Eccentric anomaly
246.51071°
Mean motion
3.77189 °/min
Orbital period
95.44 mins
BSTAR
-0.00001644
Loading maneuver chart data...
Computing Atmospheric mass density...
Loading historical data...
Loading historical data...
Loading historical data...
Loading historical data...
Loading historical data...
Loading historical data...
Loading historical data...

Documentation

Showing up to 5 results
|